DAL2862 KATL-KOKC

Flight info

Callsign DAL2862
Flight time 2h 3m
Altitude 38000
Route NASSA2 YAALL J14 DWINE RIFFL3
Aircraft A319/M-SDE3FGHIRWY/LB1

Departure

Time 2026-04-30 20:11
Airport Hartsfield Jackson Atlanta International Airport (KATL)

Arrival

Time 2026-04-30 22:15
Airport OKC Will Rogers World Airport (KOKC)
Time Latitude Longitude Altitude Speed Heading
2026-04-30 19:58 33.64343 -84.43199 1022 ft 0 kts 250°
2026-04-30 20:02 33.64347 -84.43185 1022 ft 2 kts 250°
2026-04-30 20:02 33.64352 -84.43169 1022 ft 2 kts 250°
2026-04-30 20:03 33.64348 -84.43135 1022 ft 2 kts 317°
2026-04-30 20:03 33.64340 -84.43128 1022 ft 0 kts 340°
2026-04-30 20:03 33.64333 -84.43126 1022 ft 0 kts 343°
2026-04-30 20:05 33.64377 -84.43131 1022 ft 5 kts
2026-04-30 20:06 33.64426 -84.43127 1022 ft 7 kts 18°
2026-04-30 20:06 33.64457 -84.43068 1022 ft 10 kts 81°
2026-04-30 20:06 33.64459 -84.42976 1022 ft 11 kts 90°
2026-04-30 20:06 33.64460 -84.42876 1022 ft 12 kts 91°
2026-04-30 20:07 33.64463 -84.42761 1022 ft 15 kts 85°
2026-04-30 20:07 33.64468 -84.42628 1021 ft 16 kts 90°
2026-04-30 20:07 33.64471 -84.42306 1014 ft 21 kts 86°
2026-04-30 20:08 33.64526 -84.42140 1013 ft 21 kts 63°
2026-04-30 20:08 33.64539 -84.41969 1010 ft 22 kts 88°
2026-04-30 20:08 33.64541 -84.41778 1007 ft 23 kts 90°
2026-04-30 20:08 33.64541 -84.41589 1010 ft 21 kts 91°
2026-04-30 20:09 33.64541 -84.41415 1012 ft 20 kts 90°
2026-04-30 20:09 33.64540 -84.41254 1016 ft 18 kts 90°
2026-04-30 20:09 33.64544 -84.40978 1022 ft 14 kts 89°
2026-04-30 20:10 33.64591 -84.40803 1028 ft 10 kts
2026-04-30 20:10 33.64666 -84.40820 1027 ft 12 kts 312°
2026-04-30 20:10 33.64678 -84.40939 1022 ft 19 kts 270°
2026-04-30 20:11 33.64676 -84.42516 1027 ft 158 kts 271°
2026-04-30 20:11 33.64673 -84.43864 1587 ft 164 kts 274°
2026-04-30 20:11 33.64652 -84.45209 2366 ft 164 kts 273°
2026-04-30 20:12 33.64873 -84.47870 3625 ft 172 kts 290°
2026-04-30 20:12 33.65228 -84.49318 4102 ft 189 kts 290°
2026-04-30 20:12 33.65587 -84.50898 4567 ft 206 kts 288°
2026-04-30 20:13 33.65947 -84.52632 4968 ft 228 kts 286°
2026-04-30 20:13 33.66320 -84.54559 5468 ft 248 kts 285°
2026-04-30 20:13 33.66712 -84.56646 6052 ft 264 kts 285°
2026-04-30 20:13 33.67107 -84.58794 6882 ft 269 kts 284°
2026-04-30 20:14 33.67483 -84.60974 7850 ft 269 kts 283°
2026-04-30 20:14 33.67847 -84.63151 8803 ft 269 kts 283°
2026-04-30 20:14 33.68215 -84.65336 9725 ft 270 kts 282°
2026-04-30 20:14 33.68586 -84.67551 10564 ft 274 kts 282°
2026-04-30 20:15 33.68972 -84.69850 11056 ft 291 kts 282°
2026-04-30 20:15 33.69379 -84.72261 11470 ft 308 kts 281°
2026-04-30 20:15 33.69738 -84.74869 11881 ft 325 kts 278°
2026-04-30 20:15 33.69939 -84.77618 12593 ft 331 kts 274°
2026-04-30 20:16 33.69981 -84.80355 13377 ft 334 kts 271°
2026-04-30 20:16 33.69982 -84.83160 14185 ft 336 kts 271°
2026-04-30 20:16 33.69979 -84.85924 15014 ft 336 kts 271°
2026-04-30 20:16 33.69973 -84.88697 15779 ft 337 kts 271°
2026-04-30 20:17 33.69967 -84.91502 16535 ft 338 kts 271°
2026-04-30 20:17 33.69960 -84.94311 17261 ft 339 kts 271°
2026-04-30 20:17 33.69951 -84.97141 17971 ft 339 kts 271°
2026-04-30 20:17 33.69944 -84.99950 18646 ft 340 kts 271°
2026-04-30 20:18 33.69940 -85.02770 19298 ft 341 kts 271°
2026-04-30 20:18 33.69931 -85.05621 19917 ft 343 kts 271°
2026-04-30 20:18 33.69920 -85.08495 20533 ft 344 kts 271°
2026-04-30 20:18 33.69910 -85.11339 21133 ft 345 kts 271°
2026-04-30 20:19 33.69899 -85.14201 21717 ft 346 kts 270°
2026-04-30 20:19 33.69885 -85.17095 22275 ft 347 kts 271°
2026-04-30 20:19 33.69873 -85.19987 22814 ft 348 kts 271°
2026-04-30 20:19 33.69859 -85.22872 23357 ft 348 kts 270°
2026-04-30 20:20 33.69835 -85.25762 23897 ft 348 kts 270°
2026-04-30 20:20 33.69799 -85.28661 24296 ft 352 kts 270°
2026-04-30 20:20 33.69766 -85.31629 24590 ft 358 kts 271°
2026-04-30 20:20 33.69732 -85.34630 25015 ft 360 kts 271°
2026-04-30 20:21 33.69695 -85.37630 25484 ft 360 kts 271°
2026-04-30 20:21 33.69662 -85.40595 25929 ft 361 kts 271°
2026-04-30 20:21 33.69627 -85.43604 26337 ft 362 kts 271°
2026-04-30 20:21 33.69592 -85.46609 26764 ft 362 kts 271°
2026-04-30 20:22 33.69552 -85.49646 27182 ft 363 kts 271°
2026-04-30 20:22 33.69516 -85.52675 27544 ft 364 kts 271°
2026-04-30 20:22 33.69474 -85.55708 27919 ft 365 kts 272°
2026-04-30 20:22 33.69439 -85.58717 28297 ft 365 kts 272°
2026-04-30 20:23 33.69401 -85.61759 28683 ft 364 kts 272°
2026-04-30 20:23 33.69359 -85.64786 29181 ft 361 kts 272°
2026-04-30 20:23 33.69314 -85.67766 29694 ft 358 kts 271°
2026-04-30 20:23 33.69272 -85.70746 30217 ft 355 kts 272°
2026-04-30 20:24 33.69230 -85.73695 30755 ft 352 kts 272°
2026-04-30 20:24 33.69190 -85.76584 31226 ft 350 kts 272°
2026-04-30 20:24 33.69144 -85.79511 31696 ft 347 kts 272°
2026-04-30 20:24 33.69103 -85.82395 32132 ft 345 kts 272°
2026-04-30 20:25 33.69016 -85.88077 32982 ft 341 kts 273°
2026-04-30 20:25 33.68973 -85.90896 33421 ft 339 kts 272°
2026-04-30 20:26 33.68881 -85.96509 34320 ft 335 kts 273°
2026-04-30 20:26 33.68813 -86.02070 35007 ft 334 kts 274°
2026-04-30 20:26 33.68888 -86.04816 35330 ft 333 kts 275°
2026-04-30 20:27 33.69272 -86.10323 36017 ft 330 kts 277°
2026-04-30 20:27 33.69690 -86.15813 36464 ft 332 kts 277°
2026-04-30 20:28 33.70114 -86.21307 36842 ft 334 kts 277°
2026-04-30 20:28 33.70547 -86.26878 37144 ft 336 kts 277°
2026-04-30 20:29 33.70976 -86.32455 37451 ft 338 kts 277°
2026-04-30 20:30 33.71622 -86.40880 37822 ft 340 kts 277°
2026-04-30 20:30 33.72269 -86.49380 37972 ft 341 kts 277°
2026-04-30 20:31 33.72908 -86.57846 37975 ft 341 kts 277°
2026-04-30 20:32 33.73962 -86.72025 37973 ft 341 kts 276°
2026-04-30 20:33 33.74586 -86.80462 37973 ft 340 kts 276°
2026-04-30 20:34 33.75205 -86.88952 37978 ft 340 kts 276°
2026-04-30 20:35 33.75815 -86.97408 37975 ft 339 kts 276°
2026-04-30 20:35 33.76420 -87.05877 37972 ft 340 kts 276°
2026-04-30 20:36 33.76817 -87.11515 37980 ft 340 kts 276°
2026-04-30 20:37 33.77412 -87.19950 37982 ft 339 kts 276°
2026-04-30 20:37 33.77802 -87.25581 37977 ft 340 kts 276°
2026-04-30 20:38 33.78192 -87.31208 37983 ft 339 kts 276°
2026-04-30 20:38 33.78583 -87.36863 37978 ft 339 kts 276°
2026-04-30 20:39 33.79219 -87.45293 37979 ft 339 kts 278°
2026-04-30 20:40 33.80549 -87.53597 37975 ft 339 kts 283°
2026-04-30 20:40 33.81675 -87.59081 37968 ft 339 kts 283°
2026-04-30 20:41 33.83375 -87.67323 37976 ft 339 kts 283°
2026-04-30 20:41 33.84506 -87.72790 37969 ft 338 kts 283°
2026-04-30 20:42 33.85637 -87.78258 37973 ft 338 kts 282°
2026-04-30 20:43 33.87329 -87.86484 37977 ft 339 kts 283°
2026-04-30 20:43 33.88460 -87.91975 37985 ft 338 kts 282°
2026-04-30 20:44 33.90142 -88.00184 37991 ft 338 kts 283°
2026-04-30 20:45 33.92376 -88.11117 37992 ft 338 kts 282°
2026-04-30 20:45 33.93487 -88.16580 37995 ft 338 kts 282°
2026-04-30 20:46 33.95704 -88.27530 37997 ft 337 kts 282°
2026-04-30 20:47 33.97353 -88.35694 37997 ft 336 kts 283°
2026-04-30 20:48 33.99007 -88.43904 37988 ft 337 kts 282°
2026-04-30 20:48 34.00100 -88.49367 37997 ft 336 kts 282°
2026-04-30 20:49 34.01186 -88.54823 37992 ft 336 kts 283°
2026-04-30 20:50 34.02826 -88.63030 37999 ft 337 kts 282°
2026-04-30 20:50 34.03913 -88.68498 38001 ft 337 kts 282°
2026-04-30 20:51 34.05002 -88.73991 38001 ft 336 kts 282°
2026-04-30 20:51 34.06619 -88.82170 37998 ft 336 kts 282°
2026-04-30 20:52 34.07697 -88.87656 37999 ft 336 kts 282°
2026-04-30 20:53 34.09304 -88.95854 37980 ft 335 kts 282°
2026-04-30 20:53 34.10380 -89.01332 37982 ft 336 kts 282°
2026-04-30 20:54 34.11983 -89.09551 37984 ft 336 kts 282°
2026-04-30 20:55 34.13578 -89.17770 37980 ft 336 kts 282°
2026-04-30 20:55 34.14633 -89.23228 37971 ft 336 kts 282°
2026-04-30 20:56 34.16227 -89.31451 37972 ft 337 kts 282°
2026-04-30 20:57 34.17811 -89.39721 37974 ft 337 kts 282°
2026-04-30 20:57 34.18856 -89.45197 37981 ft 337 kts 282°
2026-04-30 20:58 34.20507 -89.53428 37984 ft 338 kts 284°
2026-04-30 20:58 34.21831 -89.58885 37990 ft 338 kts 285°
2026-04-30 20:59 34.23809 -89.67046 37992 ft 338 kts 284°
2026-04-30 21:00 34.26436 -89.77943 37995 ft 338 kts 284°
2026-04-30 21:01 34.28397 -89.86073 37991 ft 338 kts 284°
2026-04-30 21:02 34.30361 -89.94255 37998 ft 338 kts 284°
2026-04-30 21:02 34.31663 -89.99682 37998 ft 338 kts 284°
2026-04-30 21:03 34.32966 -90.05151 37997 ft 339 kts 284°
2026-04-30 21:03 34.34271 -90.10628 37996 ft 339 kts 284°
2026-04-30 21:04 34.35573 -90.16087 37993 ft 339 kts 284°
2026-04-30 21:04 34.37519 -90.24267 37990 ft 339 kts 284°
2026-04-30 21:05 34.38814 -90.29741 37991 ft 339 kts 284°
2026-04-30 21:05 34.40116 -90.35252 38000 ft 339 kts 284°
2026-04-30 21:06 34.41407 -90.40717 38002 ft 339 kts 284°
2026-04-30 21:06 34.42692 -90.46194 38007 ft 339 kts 284°
2026-04-30 21:07 34.43979 -90.51671 38007 ft 340 kts 284°
2026-04-30 21:07 34.45269 -90.57185 38001 ft 341 kts 284°
2026-04-30 21:08 34.46562 -90.62717 38004 ft 341 kts 284°
2026-04-30 21:08 34.47849 -90.68257 38006 ft 341 kts 284°
2026-04-30 21:09 34.49129 -90.73759 38003 ft 341 kts 283°
2026-04-30 21:09 34.50408 -90.79257 38007 ft 341 kts 283°
2026-04-30 21:10 34.51689 -90.84809 38008 ft 341 kts 283°
2026-04-30 21:10 34.52965 -90.90326 38007 ft 341 kts 283°
2026-04-30 21:11 34.54235 -90.95851 38005 ft 342 kts 283°
2026-04-30 21:11 34.55517 -91.01416 38012 ft 342 kts 283°
2026-04-30 21:12 34.56785 -91.06960 38014 ft 342 kts 283°
2026-04-30 21:12 34.58048 -91.12490 38016 ft 342 kts 283°
2026-04-30 21:13 34.59316 -91.18034 38013 ft 342 kts 284°
2026-04-30 21:13 34.60587 -91.23597 38016 ft 342 kts 284°
2026-04-30 21:14 34.61844 -91.29128 38019 ft 342 kts 284°
2026-04-30 21:14 34.63105 -91.34695 38021 ft 341 kts 284°
2026-04-30 21:15 34.64355 -91.40224 38025 ft 342 kts 283°
2026-04-30 21:15 34.65617 -91.45811 38031 ft 343 kts 283°
2026-04-30 21:16 34.66867 -91.51370 38032 ft 343 kts 283°
2026-04-30 21:16 34.68113 -91.56922 38036 ft 343 kts 283°
2026-04-30 21:17 34.69363 -91.62501 38037 ft 342 kts 284°
2026-04-30 21:17 34.70610 -91.68082 38035 ft 342 kts 283°
2026-04-30 21:18 34.71846 -91.73626 38035 ft 343 kts 283°
2026-04-30 21:18 34.73090 -91.79209 38031 ft 343 kts 283°
2026-04-30 21:19 34.74329 -91.84807 38032 ft 343 kts 283°
2026-04-30 21:19 34.75566 -91.90390 38034 ft 342 kts 284°
2026-04-30 21:20 34.76791 -91.95936 38037 ft 342 kts 283°
2026-04-30 21:20 34.78016 -92.01497 38039 ft 342 kts 283°
2026-04-30 21:21 34.79237 -92.07051 38039 ft 341 kts 283°
2026-04-30 21:22 34.80879 -92.15440 38042 ft 340 kts 279°
2026-04-30 21:23 34.82067 -92.26861 38041 ft 341 kts 277°
2026-04-30 21:23 34.82847 -92.35388 38040 ft 341 kts 276°
2026-04-30 21:24 34.83365 -92.41130 38038 ft 341 kts 277°
2026-04-30 21:24 34.83872 -92.46822 38037 ft 341 kts 277°
2026-04-30 21:25 34.84637 -92.55407 38035 ft 341 kts 276°
2026-04-30 21:26 34.85389 -92.64016 38024 ft 341 kts 277°
2026-04-30 21:27 34.86138 -92.72613 38018 ft 341 kts 277°
2026-04-30 21:27 34.86634 -92.78307 38008 ft 340 kts 276°
2026-04-30 21:28 34.87371 -92.86874 38001 ft 340 kts 276°
2026-04-30 21:29 34.88102 -92.95447 38001 ft 340 kts 276°
2026-04-30 21:30 34.89303 -93.09714 38000 ft 339 kts 277°
2026-04-30 21:31 34.90485 -93.23937 38000 ft 339 kts 277°
2026-04-30 21:32 34.91184 -93.32471 38000 ft 338 kts 277°
2026-04-30 21:32 34.91650 -93.38142 38000 ft 337 kts 276°
2026-04-30 21:33 34.92334 -93.46635 37998 ft 337 kts 276°
2026-04-30 21:34 34.92791 -93.52319 38000 ft 337 kts 277°
2026-04-30 21:34 34.93465 -93.60794 38008 ft 335 kts 277°
2026-04-30 21:35 34.93912 -93.66466 38016 ft 336 kts 276°
2026-04-30 21:35 34.94356 -93.72067 38013 ft 335 kts 277°
2026-04-30 21:36 34.94798 -93.77728 38013 ft 335 kts 277°
2026-04-30 21:37 34.95666 -93.88961 38010 ft 334 kts 277°
2026-04-30 21:37 34.96102 -93.94589 38008 ft 334 kts 277°
2026-04-30 21:38 34.96528 -94.00193 38006 ft 333 kts 277°
2026-04-30 21:38 34.96952 -94.05815 38005 ft 332 kts 277°
2026-04-30 21:39 34.97374 -94.11365 38007 ft 332 kts 276°
2026-04-30 21:39 34.97793 -94.16973 38007 ft 332 kts 276°
2026-04-30 21:40 34.98211 -94.22569 38010 ft 332 kts 276°
2026-04-30 21:40 34.98623 -94.28145 38012 ft 332 kts 276°
2026-04-30 21:41 34.99037 -94.33752 38013 ft 333 kts 276°
2026-04-30 21:41 34.99445 -94.39349 38013 ft 332 kts 276°
2026-04-30 21:42 34.99850 -94.44941 38018 ft 332 kts 276°
2026-04-30 21:42 35.00254 -94.50555 38024 ft 332 kts 276°
2026-04-30 21:43 35.00647 -94.56138 38028 ft 331 kts 276°
2026-04-30 21:43 35.01044 -94.61691 38031 ft 332 kts 276°
2026-04-30 21:44 35.01480 -94.67281 38035 ft 332 kts 277°
2026-04-30 21:44 35.02198 -94.72840 38031 ft 332 kts 279°
2026-04-30 21:45 35.02943 -94.78371 38029 ft 333 kts 278°
2026-04-30 21:45 35.03699 -94.83909 38026 ft 332 kts 278°
2026-04-30 21:46 35.04448 -94.89452 38019 ft 332 kts 278°
2026-04-30 21:46 35.05194 -94.95025 38019 ft 332 kts 279°
2026-04-30 21:47 35.05942 -95.00552 38018 ft 332 kts 278°
2026-04-30 21:47 35.06689 -95.06123 38021 ft 332 kts 279°
2026-04-30 21:48 35.07431 -95.11654 38019 ft 332 kts 279°
2026-04-30 21:48 35.08168 -95.17182 38021 ft 332 kts 279°
2026-04-30 21:49 35.08909 -95.22755 38023 ft 333 kts 278°
2026-04-30 21:49 35.09647 -95.28325 38024 ft 332 kts 278°
2026-04-30 21:50 35.10375 -95.33857 38024 ft 333 kts 278°
2026-04-30 21:50 35.11103 -95.39451 38011 ft 332 kts 278°
2026-04-30 21:51 35.11447 -95.42225 37725 ft 332 kts 278°
2026-04-30 21:51 35.11790 -95.45004 37433 ft 331 kts 278°
2026-04-30 21:51 35.12122 -95.47742 37145 ft 328 kts 278°
2026-04-30 21:51 35.12452 -95.50473 36855 ft 326 kts 277°
2026-04-30 21:52 35.12790 -95.53245 36563 ft 326 kts 278°
2026-04-30 21:52 35.13117 -95.55969 36267 ft 326 kts 277°
2026-04-30 21:52 35.13451 -95.58720 35877 ft 328 kts 277°
2026-04-30 21:52 35.13778 -95.61465 35365 ft 330 kts 276°
2026-04-30 21:53 35.14106 -95.64231 34748 ft 330 kts 277°
2026-04-30 21:53 35.14438 -95.66991 34096 ft 331 kts 275°
2026-04-30 21:53 35.14769 -95.69752 33387 ft 332 kts 275°
2026-04-30 21:53 35.15102 -95.72559 32677 ft 334 kts 276°
2026-04-30 21:54 35.15431 -95.75364 31938 ft 337 kts 276°
2026-04-30 21:54 35.15762 -95.78159 31186 ft 340 kts 276°
2026-04-30 21:54 35.16099 -95.81024 30404 ft 343 kts 276°
2026-04-30 21:54 35.16439 -95.83914 29610 ft 346 kts 276°
2026-04-30 21:55 35.16782 -95.86814 28817 ft 348 kts 276°
2026-04-30 21:55 35.17121 -95.89716 28003 ft 352 kts 275°
2026-04-30 21:55 35.17471 -95.92666 27158 ft 354 kts 276°
2026-04-30 21:55 35.17815 -95.95631 26278 ft 357 kts 276°
2026-04-30 21:56 35.18165 -95.98633 25406 ft 359 kts 276°
2026-04-30 21:56 35.18509 -96.01604 25004 ft 352 kts 276°
2026-04-30 21:56 35.18856 -96.04568 24747 ft 353 kts 275°
2026-04-30 21:56 35.19199 -96.07536 24486 ft 351 kts 276°
2026-04-30 21:57 35.19534 -96.10445 24247 ft 350 kts 276°
2026-04-30 21:57 35.19871 -96.13386 24029 ft 347 kts 276°
2026-04-30 21:57 35.20206 -96.16278 23782 ft 336 kts 276°
2026-04-30 21:57 35.20523 -96.19041 23532 ft 323 kts 276°
2026-04-30 21:58 35.20829 -96.21679 23287 ft 317 kts 276°
2026-04-30 21:58 35.21106 -96.24353 23056 ft 316 kts 275°
2026-04-30 21:58 35.21370 -96.27006 22803 ft 314 kts 275°
2026-04-30 21:58 35.21627 -96.29662 22594 ft 315 kts 275°
2026-04-30 21:59 35.21891 -96.32317 22346 ft 315 kts 276°
2026-04-30 21:59 35.22153 -96.34975 21993 ft 315 kts 276°
2026-04-30 21:59 35.22413 -96.37617 21562 ft 312 kts 276°
2026-04-30 22:00 35.22927 -96.42818 20597 ft 309 kts 276°
2026-04-30 22:00 35.23435 -96.47990 19615 ft 308 kts 276°
2026-04-30 22:00 35.23688 -96.50587 19121 ft 308 kts 276°
2026-04-30 22:01 35.23940 -96.53166 18638 ft 307 kts 276°
2026-04-30 22:01 35.24193 -96.55750 18186 ft 306 kts 276°
2026-04-30 22:01 35.24444 -96.58355 17713 ft 306 kts 277°
2026-04-30 22:01 35.24692 -96.60905 17261 ft 305 kts 277°
2026-04-30 22:02 35.24901 -96.63481 16844 ft 304 kts 274°
2026-04-30 22:02 35.24934 -96.66053 16478 ft 301 kts 269°
2026-04-30 22:02 35.24869 -96.68578 16132 ft 299 kts 268°
2026-04-30 22:02 35.24794 -96.71111 15789 ft 298 kts 268°
2026-04-30 22:03 35.24723 -96.73637 15453 ft 296 kts 268°
2026-04-30 22:03 35.24658 -96.76141 15122 ft 294 kts 268°
2026-04-30 22:03 35.24594 -96.78638 14796 ft 293 kts 268°
2026-04-30 22:03 35.24533 -96.81090 14473 ft 293 kts 268°
2026-04-30 22:04 35.24472 -96.83603 14068 ft 295 kts 268°
2026-04-30 22:04 35.24411 -96.86083 13646 ft 296 kts 268°
2026-04-30 22:04 35.24674 -96.91174 12313 ft 311 kts 275°
2026-04-30 22:05 35.24896 -96.93825 11658 ft 315 kts 275°
2026-04-30 22:05 35.25109 -96.96507 11242 ft 311 kts 274°
2026-04-30 22:05 35.25306 -96.99094 10904 ft 305 kts 274°
2026-04-30 22:05 35.25496 -97.01666 10567 ft 298 kts 274°
2026-04-30 22:06 35.25677 -97.04155 10234 ft 294 kts 274°
2026-04-30 22:06 35.26023 -97.09041 9602 ft 285 kts 273°
2026-04-30 22:06 35.26189 -97.11454 9268 ft 280 kts 274°
2026-04-30 22:07 35.26351 -97.13816 8887 ft 279 kts 273°
2026-04-30 22:07 35.26510 -97.16154 8472 ft 279 kts 274°
2026-04-30 22:07 35.26673 -97.18536 8066 ft 280 kts 274°
2026-04-30 22:07 35.26832 -97.20900 7632 ft 282 kts 275°
2026-04-30 22:08 35.26992 -97.23280 7177 ft 283 kts 275°
2026-04-30 22:08 35.27156 -97.25695 6766 ft 283 kts 275°
2026-04-30 22:08 35.27317 -97.28083 6368 ft 283 kts 275°
2026-04-30 22:08 35.27480 -97.30468 5976 ft 284 kts 276°
2026-04-30 22:09 35.27642 -97.32864 5605 ft 283 kts 276°
2026-04-30 22:09 35.27804 -97.35275 5241 ft 282 kts 276°
2026-04-30 22:09 35.27962 -97.37623 4875 ft 274 kts 276°
2026-04-30 22:09 35.28111 -97.39883 4552 ft 259 kts 276°
2026-04-30 22:10 35.28249 -97.41994 4441 ft 237 kts 276°
2026-04-30 22:10 35.28374 -97.43917 4369 ft 216 kts 277°
2026-04-30 22:10 35.28487 -97.45643 4388 ft 195 kts 277°
2026-04-30 22:10 35.28593 -97.47237 4292 ft 182 kts 278°
2026-04-30 22:11 35.28785 -97.50152 4045 ft 163 kts 278°
2026-04-30 22:11 35.28879 -97.51540 3732 ft 167 kts 278°
2026-04-30 22:11 35.28974 -97.52958 3409 ft 170 kts 279°
2026-04-30 22:12 35.29071 -97.54410 3130 ft 169 kts 278°
2026-04-30 22:12 35.29160 -97.55799 2892 ft 161 kts 279°
2026-04-30 22:12 35.29248 -97.57161 2546 ft 160 kts 278°
2026-04-30 22:12 35.29534 -97.58376 2284 ft 140 kts 317°
2026-04-30 22:13 35.30323 -97.58840 2286 ft 125 kts 358°
2026-04-30 22:13 35.31196 -97.58901 2289 ft 125 kts
2026-04-30 22:13 35.32078 -97.58897 2286 ft 126 kts
2026-04-30 22:13 35.32964 -97.58897 2202 ft 127 kts
2026-04-30 22:14 35.33833 -97.58897 2042 ft 126 kts
2026-04-30 22:14 35.34716 -97.58897 1878 ft 126 kts
2026-04-30 22:14 35.35594 -97.58895 1715 ft 125 kts
2026-04-30 22:14 35.36463 -97.58894 1569 ft 125 kts
2026-04-30 22:15 35.37328 -97.58891 1422 ft 124 kts
2026-04-30 22:15 35.38182 -97.58894 1288 ft 116 kts
2026-04-30 22:15 35.38727 -97.58890 1293 ft 46 kts
2026-04-30 22:15 35.39005 -97.58891 1294 ft 37 kts 359°
2026-04-30 22:16 35.39188 -97.58921 1293 ft 18 kts 317°
2026-04-30 22:16 35.39214 -97.59037 1294 ft 8 kts 271°
2026-04-30 22:17 35.39214 -97.59159 1292 ft 4 kts 270°
2026-04-30 22:17 35.39223 -97.59211 1292 ft 7 kts 309°
2026-04-30 22:17 35.39341 -97.59269 1294 ft 10 kts 330°
2026-04-30 22:18 35.39369 -97.59352 1294 ft 12 kts 282°
2026-04-30 22:18 35.39458 -97.59411 1294 ft 2 kts 339°
2026-04-30 22:19 35.39460 -97.59412 1294 ft 0 kts 339°